Simultaneous Nadir Overpasses (SNOs) Predictions

Prediction of SNOs between TERRA and METOP-C Satellite Orbit:

Table of predicted SNOs for the next 14.0 days since TLE Epoch: 7/17/2021
Index Date (TERRA) Time (TERRA) Lat,Lon (TERRA) SZA (TERRA ) Date (METOP-C) Time (METOP-C) Lat,Lon (METOP-C) SZA (METOP-C ) Distance(km) Time Diff (sec)
1 07/18/2021 22:10:55 -81.28, 72.83 117.02 07/18/2021 22:09:49 -81.29, 72.93 117.04 1.78 66
2 07/18/2021 23:00:21 81.29,-119.44 63.00 07/18/2021 23:00:29 81.29,-119.57 62.99 2.21 8
3 07/21/2021 17:45:06 -81.30, 139.53 116.46 07/21/2021 17:44:09 -81.30, 139.71 116.47 3.07 57
4 07/21/2021 18:34:32 81.30, -52.77 63.56 07/21/2021 18:34:49 81.30, -52.76 63.57 0.24 17
5 07/24/2021 13:19:17 -81.29,-154.18 115.91 07/24/2021 13:18:30 -81.29,-154.30 115.95 1.99 47
6 07/24/2021 14:08:43 81.29, 13.50 64.10 07/24/2021 14:09:09 81.30, 13.65 64.14 2.70 26
7 07/27/2021 08:53:28 -81.30, -87.54 115.27 07/27/2021 08:52:50 -81.29, -87.54 115.29 0.64 38
8 07/27/2021 09:42:54 81.30, 80.11 64.75 07/27/2021 09:43:30 81.30, 80.05 64.76 1.12 36
9 07/30/2021 04:27:40 -81.29, -21.31 114.64 07/30/2021 04:27:11 -81.29, -21.18 114.63 2.30 29



Historial Predications of SNOs between TERRA and METOP-C
